Presure
183 178 175 176 181 167 178 174 186 183 174 172 173 163 162 174 168 183 177 157 156 173 190 187 184 163 181 143 171 186 192 190 191 196 198 204 191 204 177 195 213 198 195
183 186 176 175 168 173 179 174 179 184 178 174 169 173 171 172 168 172 167 175 159 151 168 195 173 187 194 193 177 187 184 175 179 190 192 200 191 187 182 184 203 200 200
188 182 177 176 165 172 169 181 188 179 185 177 174 171 176 173 170 175 161 177 168 181 178 177 174 175 183 184 185 185 186 184 187 194 201 191 190 205 200 183 209 205 183
182 196 182 174 179 171 173 174 172 174 178 182 177 170 177 178 172 174 171 180 168 176 173 171 136 181 181 179 180 183 181 178 172 186 180 193 183 198 175 190 195 203 261
186 177 185 187 181 175 177 172 175 181 175 181 175 173 169 162 157 164 169 164 175 169 171 182 179 175 174 176 183 181 184 174 187 187 183 202 202 202 197 184 188 266 300
186 181 177 155 183 174 178 173 182 191 181 178 178 176 175 164 176 173 173 170 165 172 175 179 175 165 173 178 179 185 187 178 177 182 188 194 204 197 205 209 214 253 252
192 191 184 179 173 177 180 181 174 180 181 169 173 172 172 172 170 166 150 173 174 170 176 172 164 175 177 184 183 185 186 188 176 194 196 194 197 188 204 198 228 253 307
203 193 186 181 178 175 172 178 173 175 174 172 176 179 177 169 170 171 177 170 170 177 173 170 179 177 179 182 184 187 177 179 183 186 192 196 195 207 219 223 251 286 294
164 177 188 184 182 182 180 177 174 172 171 171 174 177 166 174 170 176 174 177 179 170 167 179 180 177 174 179 183 183 187 184 193 178 197 202 190 218 215 202 257 294 282
159 169 181 180 182 184 182 178 174 183 181 179 171 165 172 164 175 171 169 176 176 164 177 168 171 175 173 183 188 181 179 194 186 186 193 182 209 219 213 243 259 265 275
185 178 183 185 188 182 183 183 179 169 173 173 173 151 176 179 180 172 174 169 177 177 176 172 176 170 184 147 180 180 179 190 182 198 195 208 203 214 227 281 259 270 281
184 166 147 154 172 164 161 150 181 181 169 160 179 160 172 159 185 185 180 178 176 171 173 171 175 186 190 184 176 193 186 192 188 192 204 219 227 231 223 275 264 258 274
166 169 173 161 185 173 175 176 181 162 170 173 172 166 186 175 173 179 165 179 183 171 173 182 182 193 179 180 206 193 193 194 205 192 206 215 188 228 240 197 263 257 275
181 180 179 172 176 191 185 150 172 171 167 164 173 165 173 180 181 172 182 181 181 180 185 181 192 180 184 175 175 198 190 189 205 207 204 223 221 226 250 259 248 289 279
178 163 184 185 165 188 169 172 172 152 170 188 172 174 182 178 165 180 191 183 181 186 173 193 143 200 181 185 194 199 193 206 202 216 203 227 217 224 253 251 264 269 291
168 170 163 182 180 179 171 174 181 180 183 179 180 176 176 183 194 183 196 195 196 155 193 195 189 188 183 195 192 200 204 202 218 208 216 229 247 259 257 249 268 260 289
180 151 175 176 169 174 173 192 185 180 183 191 191 193 194 191 186 187 194 188 183 197 198 184 183 198 194 190 196 203 206 212 202 219 228 208 237 256 245 259 253 274 280
170 173 185 178 171 163 159 174 157 178 179 182 176 153 188 171 192 190 181 180 190 189 203 167 195 203 193 205 189 204 202 216 223 231 226 238 220 262 250 269 273 286 277
194 192 182 190 191 190 172 172 160 167 172 165 182 171 180 189 183 160 186 169 181 190 171 192 201 190 206 197 206 196 215 228 210 237 237 213 239 249 260 265 267 279 273
194 197 192 191 189 190 183 184 182 182 183 179 174 182 168 165 188 178 191 190 195 179 193 192 199 207 195 205 213 219 229 238 237 261 239 254 262 261 251 273 261 268 282
196 199 200 197 192 192 193 192 192 191 189 192 192 185 182 192 188 192 194 194 192 186 156 205 207 191 203 214 226 214 207 241 259 240 271 268 248 268 269 267 271 278 296
171 203 193 195 195 196 198 200 196 195 194 194 194 194 193 194 194 195 191 191 205 202 207 188 196 212 213 225 223 225 234 225 241 282 288 301 267 269 269 275 285 292 316
225 224 214 208 202 193 196 197 197 190 187 191 192 191 194 196 193 203 208 205 206 207 201 203 210 206 224 234 221 228 269 250 260 284 278 263 277 272 277 289 294 321 281
211 211 204 209 220 213 211 208 205 203 203 204 204 180 204 204 200 204 206 213 203 215 193 210 219 237 222 229 255 258 262 268 279 277 281 279 274 286 296 307 320 247 282
217 211 209 208 217 212 219 216 218 171 218 216 209 210 213 213 211 216 216 222 222 220 227 249 229 228 227 287 306 275 288 289 282 276 275 296 288 299 324 284 281 281 314
245 242 223 216 217 213 194 173 182 209 184 182 210 209 209 220 215 223 225 234 236 221 229 226 238 282 295 297 285 292 290 270 277 282 286 291 311 303 284 281 271 315 400
Wind_Speed
45 43 44 45 45 48 44 43 46 45 45 44 40 47 51 46 45 42 44 49 48 46 46 47 52 56 57 60 65 60 57 56 59 57 57 61 61 61 78 67 71 70 80
46 48 45 45 48 48 46 46 46 47 47 49 46 44 50 48 48 47 48 47 49 53 49 52 55 52 54 55 61 56 59 69 64 60 63 65 62 67 73 74 77 79 82
49 49 49 45 50 48 51 47 48 44 50 51 51 50 50 51 51 52 49 50 51 54 54 50 53 55 58 58 60 61 60 59 61 70 72 64 65 77 73 79 83 86 92
50 49 51 50 46 48 49 49 48 48 48 53 54 51 51 53 54 54 53 55 51 54 56 55 65 60 62 62 65 66 64 64 64 70 69 74 72 75 82 79 90 90 94
53 53 52 52 47 48 50 51 51 50 50 52 52 54 53 50 50 55 56 52 61 55 61 65 64 63 64 66 70 68 72 65 76 73 75 84 86 84 81 91 95 101 106
56 56 54 53 47 51 51 52 51 51 50 52 55 56 59 54 60 60 61 60 59 63 65 67 66 64 69 72 71 76 76 70 74 77 79 84 87 84 94 92 102 95 92
56 55 54 53 55 53 52 51 52 50 51 53 55 57 60 61 61 58 55 66 66 64 69 67 63 75 75 77 77 78 77 80 76 86 90 87 85 83 94 93 101 102 99
52 51 57 56 60 57 54 53 54 54 53 55 58 62 62 61 64 67 69 66 68 73 70 70 75 77 81 81 79 80 74 78 83 80 89 89 90 105 109 103 105 101 91
49 53 58 60 61 60 58 57 56 58 56 58 62 63 60 67 66 72 72 72 74 73 71 77 78 78 80 82 84 83 85 82 88 78 94 97 89 113 104 93 98 94 84
56 56 58 58 60 62 62 61 60 61 63 62 62 61 66 64 72 67 69 76 77 70 80 73 76 80 80 87 87 81 81 91 77 86 86 86 103 108 100 98 95 90 84
60 61 60 61 62 62 62 63 64 61 65 66 67 61 73 76 77 72 77 72 81 84 83 81 85 79 90 66 81 82 82 86 78 92 93 107 95 102 105 100 95 91 85
65 62 59 56 62 61 61 60 67 67 66 64 71 65 74 63 81 80 79 80 83 84 87 77 86 93 93 89 81 91 88 91 86 87 104 119 116 113 106 99 93 89 87
71 66 63 67 65 68 69 70 68 67 71 73 74 70 81 78 79 82 69 82 85 85 89 95 95 94 86 86 99 93 97 96 110 82 110 114 94 110 107 73 95 92 88
71 73 72 72 69 68 69 69 73 73 72 71 78 72 82 84 85 82 89 87 87 91 95 94 95 91 93 85 79 100 90 85 110 116 103 124 115 93 106 96 88 91 87
76 77 71 73 74 71 75 77 79 67 78 83 80 86 88 88 74 92 96 95 95 96 76 94 71 99 90 91 98 106 99 114 106 121 91 123 103 104 108 98 97 94 86
84 82 72 77 77 78 78 82 83 82 83 87 83 87 82 90 92 92 92 94 99 62 96 97 92 93 91 103 95 107 111 106 127 106 108 122 118 110 108 102 103 94 91
88 67 85 84 80 81 82 83 82 84 86 88 86 89 89 89 88 89 94 92 93 105 106 93 90 103 103 96 108 114 114 125 91 122 119 87 122 110 105 104 98 105 88
93 92 90 89 85 78 73 85 72 86 87 89 84 67 96 81 99 98 91 94 103 103 113 71 106 114 97 119 81 113 110 129 134 133 123 126 107 111 109 111 112 96 90
99 97 94 93 93 92 86 88 84 87 87 80 95 85 95 101 96 69 103 86 97 107 77 108 117 96 123 105 124 94 132 139 105 134 128 101 118 112 110 110 105 103 96
103 104 103 100 97 96 91 93 94 94 96 95 92 100 85 85 105 94 111 113 117 98 111 109 121 128 103 124 131 138 139 131 139 125 126 116 117 111 106 103 103 101 107
108 108 108 107 105 104 104 104 105 106 105 107 107 103 103 111 107 112 116 117 112 105 76 126 126 99 127 131 140 115 100 136 129 131 115 116 113 116 106 105 107 112 116
91 113 106 109 111 111 114 115 113 112 112 112 114 115 114 116 117 118 112 115 126 121 124 91 114 131 133 140 134 132 139 133 135 118 116 113 108 108 107 111 117 115 100
112 115 116 115 113 109 115 116 116 111 109 114 114 113 117 121 116 125 126 123 125 126 110 115 129 118 138 137 125 137 121 127 122 109 104 107 110 107 112 118 116 105 92
108 110 104 108 112 113 118 119 120 121 122 122 121 88 120 122 118 123 124 130 117 129 100 119 135 139 125 134 124 127 118 113 108 108 108 105 109 114 115 115 102 85 94
119 114 106 106 113 108 115 117 120 62 125 124 121 119 125 128 128 129 129 134 133 132 139 138 130 130 127 108 101 114 106 105 105 106 109 113 111 114 99 95 100 100 107
117 116 120 123 120 117 97 78 89 122 87 81 123 125 126 131 129 135 135 137 139 122 126 124 132 121 103 102 106 104 105 100 104 107 111 109 115 98 92 99 97 108 68
Wind_Direction
275 270 270 272 274 276 277 276 276 273 271 271 268 270 273 276 275 279 272 275 280 280 289 283 279 281 278 283 280 292 298 296 298 304 301 309 288 302 278 283 306 275 277
272 273 266 265 270 273 275 273 276 277 273 272 270 269 273 274 274 277 271 281 272 277 285 299 276 292 302 300 281 293 290 281 289 302 301 310 295 291 283 278 300 289 286
272 268 266 263 267 270 275 276 279 277 274 274 274 271 274 279 278 282 270 284 283 294 296 294 291 293 298 300 301 302 302 298 302 307 310 304 300 311 306 280 309 299 276
269 268 269 267 267 269 271 274 275 273 275 272 274 277 279 280 282 286 285 291 287 297 297 296 285 299 299 301 300 303 302 299 291 305 296 308 296 303 279 291 293 287 307
266 271 267 267 270 269 270 272 274 272 271 274 275 277 277 278 275 285 287 289 296 294 293 296 298 299 299 300 301 302 302 300 305 304 301 308 310 311 303 282 288 316 312
269 270 268 271 271 268 270 272 272 271 269 271 272 274 276 280 285 286 288 291 294 296 296 298 299 298 299 299 302 302 302 302 300 301 305 307 312 304 314 313 313 318 318
273 272 272 271 271 270 270 273 271 270 268 274 276 276 279 282 285 288 276 292 293 294 294 296 298 296 298 299 300 301 301 302 299 306 308 309 312 297 311 301 322 321 313
270 270 268 270 271 272 272 271 271 273 274 277 277 276 279 282 284 286 287 291 293 292 294 294 294 297 299 299 301 301 299 300 302 304 308 309 309 313 318 320 321 312 316
275 274 267 268 271 273 274 274 274 274 275 276 277 278 285 282 284 285 288 288 288 292 295 294 295 296 299 300 300 300 301 302 304 298 310 314 307 317 320 304 319 319 318
275 274 271 273 272 272 273 275 276 276 276 276 279 283 282 287 284 286 289 288 287 293 291 298 299 298 301 297 298 299 300 304 301 305 309 296 317 322 317 320 319 317 317
269 272 270 270 269 273 273 273 274 279 278 280 281 278 281 280 281 287 287 292 289 291 293 296 297 300 296 277 299 301 299 304 300 309 309 316 318 319 321 316 320 320 315
267 272 264 273 277 277 277 270 272 274 278 279 278 281 283 288 279 280 285 287 288 293 295 291 297 292 295 297 299 301 302 306 309 308 315 317 320 317 320 315 318 317 314
274 273 269 271 268 272 273 273 273 281 280 280 283 280 278 285 289 286 292 286 285 292 294 291 292 294 296 296 302 302 306 308 311 309 317 321 291 317 321 298 317 316 317
267 267 269 270 269 266 266 275 275 276 281 284 282 288 286 284 284 289 287 287 289 288 288 291 293 295 296 297 298 304 308 307 311 315 314 318 319 301 319 319 317 316 316
266 272 269 268 275 267 275 273 275 274 281 275 283 284 282 285 292 287 284 288 288 287 282 290 277 296 293 297 303 306 308 309 311 313 303 319 318 317 315 318 316 315 314
268 268 272 267 269 270 275 272 274 276 275 277 279 281 283 281 279 281 287 289 291 285 292 292 293 295 298 302 306 307 309 310 312 309 318 316 314 309 310 314 313 312 312
263 269 266 267 271 269 273 273 274 275 278 279 279 281 282 282 283 286 292 289 292 295 295 295 297 297 300 305 308 309 309 312 307 312 312 306 313 310 310 311 311 310 307
264 265 265 265 269 276 280 274 281 275 277 280 281 281 286 288 291 291 291 292 294 294 296 295 299 302 304 307 302 308 309 310 311 311 312 312 312 307 310 307 306 306 307
264 264 263 265 266 268 271 271 276 278 279 283 283 286 287 287 290 291 292 288 293 294 293 295 300 302 302 305 306 304 306 306 306 311 310 306 310 308 308 306 305 305 304
264 265 268 270 270 270 272 273 275 277 279 280 283 284 287 289 288 290 291 291 293 292 296 299 298 298 302 302 304 304 304 305 308 303 307 303 303 305 305 304 303 303 305
263 263 264 266 268 270 272 272 273 275 276 277 278 281 282 285 287 287 288 290 292 294 282 293 297 300 300 300 302 301 303 306 302 306 300 300 304 299 300 302 302 302 303
260 260 264 265 267 269 269 270 272 274 277 279 279 280 281 282 284 286 288 289 288 290 292 296 296 296 300 301 303 304 304 306 304 295 297 297 299 299 302 302 302 302 298
258 258 260 260 264 269 270 271 272 276 278 278 280 282 283 284 285 285 286 287 288 291 295 292 296 298 298 299 303 301 296 299 297 296 295 298 299 300 302 302 300 297 297
261 261 265 263 262 264 266 267 270 273 274 275 277 278 280 282 284 285 287 286 290 290 290 294 295 295 299 299 298 296 296 294 293 295 297 297 298 299 300 301 295 296 298
260 264 266 268 266 268 266 268 268 280 272 275 277 280 280 281 282 283 286 287 289 289 291 292 295 296 297 291 289 293 292 295 296 298 298 298 298 301 297 298 299 300 298
257 256 261 266 267 269 270 278 274 274 276 280 275 277 279 281 283 282 285 286 287 290 291 292 293 291 288 290 292 293 295 296 298 297 296 299 301 297 300 300 300 298 295